Weather History for Edenton, NC

Change the Weather History Date:

Tuesday, December 17, 2013

  Actual Average Record
Temperature  
Mean Temperature 50 °F -  
Max Temperature 59 °F 55 °F 73 °F (1933)
Min Temperature 40 °F 34 °F 12 °F (1951)
Degree Days  
Heating Degree Days 16    
Moisture  
Dew Point 40 °F    
Average Humidity 74    
Maximum Humidity 92    
Minimum Humidity 50    
Precipitation  
Precipitation 0.00 in - - ()
Sea Level Pressure  
Sea Level Pressure 30.04 in    
Wind  
Wind Speed 8 mph (SSW)    
Max Wind Speed 22 mph    
Max Gust Speed 28 mph    
Visibility 10 miles    
Events      
Averages and records for this station are not official NWS values.
T = Trace of Precipitation, MM = Missing Value Source: NWS Daily Summary

Daily Weather History Graph

Daily Weather History Graph

Search for Another Location

Airport:

Trip Planner

Search our weather history database for the weather conditions in past years. The results will help you decide how hot, cold, wet, or windy it might be!

Date:

Astronomy

Dec. 17, 2013 Rise Set
Actual Time 7:11 AM EST 4:54 PM EST
Civil Twilight 6:42 AM EST 5:22 PM EST
Nautical Twilight 6:10 AM EST 5:54 PM EST
Astronomical Twilight 5:39 AM EST 6:26 PM EST
Moon 5:30 PM EST (12/17) 7:07 AM EST (12/17)
Length of Visible Light 10h 40m
Length of Day
9h 43m
Full, 100% of the Moon is Illuminated
Dec 17
Full
Dec 25
Last Quarter
Jan 1
New
Jan 7
First Quarter
Jan 15
Full

Hourly Weather History & Observations

Time (EST) Temp. Windchill Dew Point Humidity Pressure Visibility Wind Dir Wind Speed Gust Speed Precip Events Conditions
12:15 AM 41.0 °F 36.4 °F 37.6 °F 88% 30.17 in 10.0 mi South 6.9 mph - N/A   Clear
12:55 AM 42.6 °F 37.8 °F 37.8 °F 83% 30.15 in 10.0 mi South 8.1 mph - N/A   Clear
1:15 AM 42.4 °F 37.0 °F 37.6 °F 83% 30.15 in 10.0 mi South 9.2 mph - N/A   Clear
1:35 AM 42.3 °F 36.8 °F 38.3 °F 86% 30.15 in 10.0 mi South 9.2 mph - N/A   Clear
1:55 AM 42.3 °F 37.3 °F 38.7 °F 87% 30.15 in 10.0 mi South 8.1 mph - N/A   Clear
2:15 AM 42.4 °F 37.5 °F 39.6 °F 90% 30.15 in 10.0 mi South 8.1 mph - N/A   Clear
2:35 AM 42.6 °F 38.4 °F 39.4 °F 88% 30.15 in 10.0 mi SSW 6.9 mph - N/A   Clear
2:55 AM 41.7 °F 37.3 °F 39.0 °F 90% 30.15 in 10.0 mi SSW 6.9 mph - N/A   Scattered Clouds
3:15 AM 42.4 °F 37.5 °F 39.4 °F 89% 30.15 in 10.0 mi South 8.1 mph - N/A   Scattered Clouds
3:35 AM 42.1 °F 37.7 °F 39.0 °F 89% 30.15 in 10.0 mi South 6.9 mph - N/A   Scattered Clouds
3:55 AM 41.7 °F 37.3 °F 38.8 °F 89% 30.14 in 10.0 mi South 6.9 mph - N/A   Clear
4:15 AM 41.5 °F 36.4 °F 39.0 °F 91% 30.13 in 10.0 mi South 8.1 mph - N/A   Clear
4:35 AM 41.9 °F 36.9 °F 39.2 °F 90% 30.13 in 10.0 mi South 8.1 mph - N/A   Clear
4:55 AM 41.9 °F 36.3 °F 39.4 °F 91% 30.12 in 10.0 mi South 9.2 mph - N/A   Clear
5:15 AM 40.5 °F 36.5 °F 37.9 °F 91% 30.13 in 10.0 mi SW 5.8 mph - N/A   Clear
5:35 AM 41.9 °F 36.9 °F 39.2 °F 90% 30.13 in 10.0 mi SW 8.1 mph - N/A   Clear
5:55 AM 41.7 °F 36.7 °F 38.8 °F 89% 30.13 in 10.0 mi SW 8.1 mph - N/A   Clear
6:15 AM 41.5 °F 35.9 °F 38.7 °F 89% 30.12 in 10.0 mi SSW 9.2 mph - N/A   Clear
6:35 AM 42.4 °F 38.8 °F 39.2 °F 88% 30.14 in 10.0 mi SW 5.8 mph - N/A   Clear
6:55 AM 41.9 °F 37.5 °F 38.8 °F 89% 30.14 in 10.0 mi SW 6.9 mph - N/A   Clear
7:15 AM 41.4 °F 36.8 °F 38.7 °F 90% 30.15 in 10.0 mi SW 6.9 mph - N/A   Clear
7:35 AM 41.5 °F 37.8 °F 39.0 °F 91% 30.14 in 10.0 mi SW 5.8 mph - N/A   Clear
7:55 AM 41.2 °F - 39.0 °F 92% 30.14 in 10.0 mi Calm Calm - N/A   Clear
8:15 AM 43.0 °F 39.5 °F 39.9 °F 89% 30.14 in 10.0 mi SW 5.8 mph - N/A   Clear
8:35 AM 43.2 °F - 39.9 °F 88% 30.14 in 10.0 mi Calm Calm - N/A   Clear
8:55 AM 45.0 °F 41.2 °F 40.1 °F 83% 30.15 in 10.0 mi WSW 6.9 mph - N/A   Clear
9:15 AM 45.7 °F 42.7 °F 40.5 °F 82% 30.14 in 10.0 mi SW 5.8 mph - N/A   Clear
9:35 AM 45.1 °F 42.8 °F 39.4 °F 80% 30.14 in 10.0 mi SSW 4.6 mph - N/A   Clear
9:55 AM 45.1 °F 42.8 °F 40.1 °F 82% 30.13 in 10.0 mi South 4.6 mph - N/A   Clear
10:15 AM 45.9 °F 43.6 °F 40.6 °F 82% 30.13 in 10.0 mi SSW 4.6 mph - N/A   Clear
10:35 AM 47.7 °F - 40.5 °F 76% 30.12 in 10.0 mi SW 3.5 mph - N/A   Clear
10:55 AM 49.3 °F - 41.2 °F 74% 30.12 in 10.0 mi South 3.5 mph - N/A   Clear
11:15 AM 50.0 °F - 40.8 °F 71% 30.10 in 10.0 mi South 5.8 mph - N/A   Clear
11:35 AM 51.4 °F - 41.7 °F 69% 30.09 in 10.0 mi South 4.6 mph - N/A   Clear
11:55 AM 52.3 °F - 42.1 °F 68% 30.07 in 10.0 mi South 5.8 mph - N/A   Clear
12:15 PM 54.0 °F - 42.8 °F 66% 30.06 in 10.0 mi South 5.8 mph - N/A   Clear
12:35 PM 55.2 °F - 41.7 °F 60% 30.04 in 10.0 mi South 6.9 mph - N/A   Clear
12:55 PM 56.7 °F - 41.0 °F 56% 30.03 in 10.0 mi SSW 8.1 mph - N/A   Clear
1:15 PM 57.6 °F - 41.9 °F 56% 30.02 in 10.0 mi SSW 9.2 mph - N/A   Clear
1:35 PM 58.1 °F - 41.9 °F 55% 30.01 in 10.0 mi SSW 11.5 mph - N/A   Clear
1:55 PM 58.8 °F - 42.6 °F 55% 30.00 in 10.0 mi SSW 10.4 mph - N/A   Clear
2:15 PM 59.0 °F - 42.6 °F 55% 29.99 in 10.0 mi South 10.4 mph - N/A   Clear
2:35 PM 58.6 °F - 42.4 °F 55% 29.97 in 10.0 mi South 9.2 mph - N/A   Clear
2:55 PM 58.8 °F - 42.1 °F 54% 29.98 in 10.0 mi SSW 9.2 mph - N/A   Clear
3:15 PM 59.0 °F - 41.4 °F 52% 29.97 in 10.0 mi SSW 9.2 mph - N/A   Clear
3:35 PM 59.0 °F - 41.0 °F 51% 29.96 in 10.0 mi SSW 10.4 mph - N/A   Clear
3:55 PM 58.6 °F - 40.1 °F 50% 29.96 in 10.0 mi SSW 10.4 mph - N/A   Clear
4:15 PM 57.6 °F - 40.5 °F 53% 29.95 in 10.0 mi SSW 11.5 mph - N/A   Clear
4:35 PM 56.5 °F - 40.3 °F 55% 29.95 in 10.0 mi SSW 9.2 mph - N/A   Clear
4:55 PM 54.3 °F - 40.1 °F 59% 29.94 in 10.0 mi SSW 8.1 mph - N/A   Clear
5:15 PM 52.9 °F - 40.5 °F 63% 29.93 in 10.0 mi South 6.9 mph - N/A   Clear
5:35 PM 51.8 °F - 41.0 °F 67% 29.93 in 10.0 mi South 5.8 mph - N/A   Clear
5:55 PM 49.5 °F - 40.8 °F 72% 29.93 in 10.0 mi South 6.9 mph - N/A   Clear
6:15 PM 51.1 °F - 41.5 °F 70% 29.93 in 10.0 mi SSW 8.1 mph - N/A   Clear
6:35 PM 52.5 °F - 42.3 °F 68% 29.93 in 10.0 mi SSW 10.4 mph - N/A   Clear
6:55 PM 51.8 °F - 42.1 °F 69% 29.92 in 10.0 mi SSW 8.1 mph - N/A   Clear
7:15 PM 50.7 °F - 41.9 °F 72% 29.92 in 10.0 mi SSW 6.9 mph - N/A   Clear
7:35 PM 49.5 °F - 42.3 °F 76% 29.91 in 10.0 mi South 6.9 mph - N/A   Clear
7:55 PM 48.6 °F - 42.1 °F 78% 29.90 in 10.0 mi South 6.9 mph - N/A   Clear
8:15 PM 49.3 °F - 42.1 °F 76% 29.89 in 10.0 mi SSW 9.2 mph - N/A   Clear
8:35 PM 50.9 °F - 42.3 °F 72% 29.88 in 10.0 mi SSW 11.5 mph - N/A   Clear
8:55 PM 52.0 °F - 41.7 °F 68% 29.88 in 10.0 mi SW 11.5 mph - N/A   Clear
9:15 PM 52.5 °F - 41.0 °F 65% 29.89 in 10.0 mi SW 10.4 mph - N/A   Clear
9:35 PM 53.1 °F - 40.5 °F 62% 29.88 in 10.0 mi SW 11.5 mph 17.3 mph N/A   Clear
9:55 PM 53.8 °F - 40.3 °F 60% 29.89 in 10.0 mi WSW 13.8 mph 20.7 mph N/A   Clear
10:15 PM 54.3 °F - 40.1 °F 59% 29.91 in 10.0 mi WSW 11.5 mph 20.7 mph N/A   Scattered Clouds
10:35 PM 54.1 °F - 40.1 °F 59% 29.93 in 10.0 mi NW 10.4 mph 18.4 mph N/A   Mostly Cloudy
10:55 PM 52.9 °F - 39.7 °F 61% 29.95 in 10.0 mi NNW 8.1 mph - N/A   Mostly Cloudy
11:15 PM 49.8 °F - 39.7 °F 68% 29.97 in 10.0 mi NNW 21.9 mph 25.3 mph N/A   Overcast
11:35 PM 46.4 °F 39.0 °F 39.7 °F 78% 29.99 in 10.0 mi North 19.6 mph 27.6 mph N/A   Scattered Clouds
11:55 PM 45.7 °F 38.3 °F 39.7 °F 80% 30.00 in 10.0 mi North 18.4 mph 24.2 mph N/A   Mostly Cloudy